Regional Weather Roundup
Issued by NWS

Home | Current Version | Previous Version | Graphics & Text | Print | Product List | Glossary On
Versions: 1 2 3 4 5 6 7 8 9 10 11 12 13 14 15 16 17 18 19 20 21 22 23 24 25 26 27 28 29 30 31 32 33 34 35 36 37 38 39 40 41 42 43 44 45 46 47 48 49 50
000
ASUS43 KLOT 231910
RWRIL

ILLINOIS REGIONAL WEATHER ROUNDUP
NATIONAL WEATHER SERVICE CHICAGO/ROMEOVILLE IL
200 PM CDT WED JUL 23 2014

NOTE: "FAIR" INDICATES FEW OR NO CLOUDS BELOW 12,000 FEET WITH NO
SIGNIFICANT WEATHER AND/OR OBSTRUCTIONS TO VISIBILITY.

* THESE STATIONS ARE NOT UNDER NWS QUALITY CONTROL. THEY ALSO MAY NOT
  REPORT WEATHER SUCH AS PRECIPITATION OR FOG.

ILZ001-002-007-009-015-016-024-232000-
NORTHWEST ILLINOIS

CITY           SKY/WX    TMP DP  RH WIND       PRES   REMARKS
MOLINE         SUNNY     80  56  43 N8G18     30.17S HX  80
STERLING*      MOSUNNY   81  59  47 NE9G17    30.16F HX  81
SAVANNA*       PTSUNNY   79  54  41 N12       30.18S
$$

ILZ003-004-008-010-011-017-018-232000-
NORTH CENTRAL ILLINOIS

CITY           SKY/WX    TMP DP  RH WIND       PRES   REMARKS
ROCKFORD       PTSUNNY   76  53  44 N10       30.18F
FREEPORT*      PTSUNNY   72  56  57 N10       30.21S
ROCHELLE*      MOSUNNY   76  55  47 NE12G18   30.17S
DE KALB*       MOSUNNY   74  54  49 N12G17    30.17F
PERU*          MOSUNNY   77  57  49 NE13      30.15F
$$

ILZ005-006-012>014-019>023-232000-
NORTHEAST ILLINOIS

CITY           SKY/WX    TMP DP  RH WIND       PRES   REMARKS
CHICAGO-OHARE  MOSUNNY   74  44  34 N21G31    30.15F
CHICAGO-MIDWAY MOSUNNY   74  51  44 NE25      30.14F
AURORA         SUNNY     77  52  41 N15G24    30.15F
LANSING*       MOSUNNY   67  55  64 N17G25    30.14F
JOLIET*        SUNNY     75  50  41 NE10G22   30.14F
WAUKEGAN       SUNNY     68  51  54 N15G21    30.17S
DUPAGE AIRPORT SUNNY     77  53  43 N21G26    30.15F
KANKAKEE*      MOSUNNY   71  57  62 NE14G20   30.14S
WHEELING       SUNNY     72  48  42 N17G28    30.18S
MORRIS*        MOSUNNY   77  57  49 N3        30.13F
ROMEOVILLE*    SUNNY     75  49  40 NE17G26   30.14S
NORTHERLY ISL    N/A     66  57  72 MISG        N/A
$$

LMZ740>746-232000-
SOUTHERN LAKE MICHIGAN

STATION/POSITION SKY/WX   TEMP    WIND        PRES    VSBY  WAVE
                          AIR SEA DIR/SP/G                  HT/PER
                          (F)     (DEG/KT/KT) (MB)    (MI)  (FT/S)
SOUTHERN BUOY              58 60  350/ 17/ 21 1021.3R         5/ 6
WAUKEGAN HARBOR            61      20/ 21/ 23 1022.7S
HARRISON CRIB              62     360/ 20/ 22   N/A
BURNHAM HARBOR             66     340/ 12/ 15   N/A
CALUMET HARBOR             65     340/ 13/ 16 1019.8F
BURNS HARBOR               63      10/ 18/ 22 1021.0
MICHIGAN CITY              63     350/ 20/ 24   N/A
$$

ILZ025>027-034>036-040-047-049-050-058-095>099-232000-
WEST-CENTRAL ILLINOIS

CITY           SKY/WX    TMP DP  RH WIND       PRES   REMARKS
QUINCY         MOSUNNY   81  66  60 NE16      30.13S HX  83
GALESBURG*     SUNNY     80  60  50 NE13      30.16F HX  81
MACOMB*        SUNNY     77  62  58 NE6       30.17S
JACKSONVILLE*  PTSUNNY   80  65  59 NE13      30.12S HX  82
PITTSFIELD*    PTSUNNY   80  67  63 NE8       30.12S HX  83
$$

ILZ028>032-037-038-041>044-048-051>054-059>061-232000-
CENTRAL ILLINOIS

CITY           SKY/WX    TMP DP  RH WIND       PRES   REMARKS
PONTIAC        MOSUNNY   77  57  50 N15G24    30.13F
BLOOMINGTON    MOSUNNY   76  59  55 NE18      30.13F
DECATUR        SUNNY     82  79  89 NE17      30.10F HX  93
PEORIA         SUNNY     80  58  46 NE13      30.13F HX  80
LACON*         MOSUNNY   77  56  47 NE9G17    30.13F
LINCOLN*       SUNNY     79  61  54 N14G20    30.08F HX  80
SPRINGFIELD    SUNNY     82  62  50 NE14G23   30.10F HX  83
TAYLORVILLE    PTSUNNY   77  64  65 N14G20    30.09S
$$

ILZ033-039-045-046-055>057-062-063-232000-
EAST-CENTRAL ILLINOIS

CITY           SKY/WX    TMP DP  RH WIND       PRES   REMARKS
CHAMPAIGN      SUNNY     77  62  59 N16G26    30.08F
RANTOUL*       SUNNY     78  54  44 NE16      30.10F
MATTOON        SUNNY     78  65  63 N15       30.05F HX  80
PARIS*         CLOUDY    78  67  70 N9        30.06F
$$

ILZ079-100>102-232000-
SOUTHWEST ILLINOIS

CITY           SKY/WX    TMP DP  RH WIND       PRES   REMARKS
ALTON          CLOUDY    79  72  78 N8        30.07S HX  82
BELLEVILLE     CLOUDY    78  74  89 NE13      30.05F
CAHOKIA*       CLOUDY    81  71  71 E14       30.05S HX  85
SPARTA*        MOSUNNY   81  72  74 W3        30.05R HX  84
$$

ILZ064>066-069>071-074>076-080>082-084>086-088>090-092>094-232000-
SOUTH-CENTRAL ILLINOIS

CITY           SKY/WX    TMP DP  RH WIND       PRES   REMARKS
CARBONDALE     CLOUDY    75  69  81 SW8       30.02S
CAIRO*         CLOUDY    74  68  80 SW10G20   29.98F THUNDER
MARION         CLOUDY    75  70  83 S12       30.02F
MT. VERNON     CLOUDY    75  68  78 N3        30.06R
CENTRALIA*     CLOUDY    77  70  77 N13       30.05S
SALEM*         CLOUDY    74  70  86 N7        30.07R
METROPOLIS*    CLOUDY    73  68  85 CALM      29.98F HAZE
$$

ILZ067-068-072-073-078-083-087-091-232000-
SOUTHEAST ILLINOIS

CITY           SKY/WX    TMP DP  RH WIND       PRES   REMARKS
FLORA*         CLOUDY    72  68  88 N7        30.05S
FAIRFIELD*     CLOUDY    79  73  83 CALM      30.04S HX  82
HARRISBURG*    CLOUDY    73  70  91 CALM      30.04R
ROBINSON*      CLOUDY    74  71  92 N10       30.05S FOG
CARMI*         CLOUDY    79  73  83 NW8       30.04S HX  82
$$

ABBREVIATIONS USED IN REMARKS
   TC - TEMPERATURE IN CELSIUS
  WCI - WIND CHILL INDEX
   HX - HEAT INDEX
  VSB - VISIBILITY
$$



USA.gov is the U.S. government's official web portal to all federal, state and local government web resources and services.